• en Belgique
  • Liste des pays
  • À 7 jours
  • Température de l'eau
  • Carte satellitaire
  • Carte météo
  • Widgets météo
  • user-avatar
    Se connecter

    Météo par heure à Audenarde

    Ce jour, 23 Novembre, Jeudi

    Heure Température Précipitation Vent Pression Humidité
    00:00 +10°C° 0 mm 9 m/s 748 mmHg 61%
    01:00 +10°C° 0,1 mm 9 m/s 747 mmHg 62%
    02:00 +9°C° 0,1 mm 10 m/s 747 mmHg 63%
    03:00 +9°C° 0,1 mm 10 m/s 746 mmHg 64%
    04:00 +11°C° 0 mm 10 m/s 746 mmHg 63%
    05:00 +11°C° 0 mm 11 m/s 746 mmHg 62%
    06:00 +11°C° 0 mm 11 m/s 746 mmHg 61%
    07:00 +12°C° 0,2 mm 11 m/s 746 mmHg 64%
    08:00 +12°C° 0,2 mm 11 m/s 746 mmHg 67%
    09:00 +13°C° 0,2 mm 11 m/s 747 mmHg 70%
    10:00 +13°C° 0,5 mm 10 m/s 748 mmHg 72%
    11:00 +13°C° 0,5 mm 10 m/s 749 mmHg 73%
    12:00 +13°C° 0,5 mm 9 m/s 749 mmHg 75%
    13:00 +13°C° 0,2 mm 8 m/s 750 mmHg 74%
    14:00 +12°C° 0,2 mm 7 m/s 751 mmHg 74%
    15:00 +11°C° 0,2 mm 6 m/s 752 mmHg 74%
    16:00 +10°C° 0 mm 5 m/s 753 mmHg 75%
    17:00 +9°C° 0 mm 5 m/s 753 mmHg 76%
    18:00 +8°C° 0 mm 5 m/s 754 mmHg 77%
    19:00 +8°C° 0 mm 4 m/s 754 mmHg 79%
    20:00 +8°C° 0 mm 4 m/s 755 mmHg 80%
    21:00 +8°C° 0 mm 4 m/s 755 mmHg 82%
    22:00 +7°C° 0,1 mm 4 m/s 755 mmHg 83%
    23:00 +8°C° 0,1 mm 3 m/s 754 mmHg 84%

    Demain, 24 Novembre, Vendredi

    Heure Température Précipitation Vent Pression Humidité
    00:00 +8°C° 0,1 mm 3 m/s 754 mmHg 86%
    01:00 +8°C° 1,4 mm 4 m/s 753 mmHg 87%
    02:00 +10°C° 1,4 mm 4 m/s 753 mmHg 89%
    03:00 +10°C° 1,4 mm 5 m/s 752 mmHg 90%
    04:00 +10°C° 0,5 mm 6 m/s 752 mmHg 89%
    05:00 +11°C° 0,5 mm 6 m/s 751 mmHg 87%
    06:00 +11°C° 0,5 mm 7 m/s 751 mmHg 85%
    07:00 +10°C° 0,5 mm 7 m/s 752 mmHg 85%
    08:00 +9°C° 0,5 mm 7 m/s 753 mmHg 85%
    09:00 +8°C° 0,5 mm 6 m/s 753 mmHg 84%
    10:00 +8°C° 0,1 mm 6 m/s 754 mmHg 81%
    11:00 +8°C° 0,1 mm 5 m/s 755 mmHg 77%
    12:00 +7°C° 0,1 mm 4 m/s 756 mmHg 73%
    13:00 +7°C° 0 mm 4 m/s 757 mmHg 73%
    14:00 +7°C° 0 mm 4 m/s 758 mmHg 72%
    15:00 +8°C° 0 mm 3 m/s 758 mmHg 71%
    16:00 +7°C° 0 mm 3 m/s 759 mmHg 73%
    17:00 +6°C° 0 mm 2 m/s 759 mmHg 75%
    18:00 +6°C° 0 mm 2 m/s 760 mmHg 76%
    19:00 +5°C° 0 mm 2 m/s 760 mmHg 77%
    20:00 +5°C° 0 mm 2 m/s 760 mmHg 78%
    21:00 +5°C° 0 mm 2 m/s 760 mmHg 79%
    22:00 +5°C° 0 mm 2 m/s 760 mmHg 79%
    23:00 +5°C° 0 mm 1 m/s 760 mmHg 80%

    Après-demain, 25 Novembre, Samedi

    Heure Température Précipitation Vent Pression Humidité
    00:00 +5°C° 0 mm 1 m/s 760 mmHg 81%
    01:00 +5°C° 0 mm 1 m/s 760 mmHg 81%
    02:00 +4°C° 0 mm 1 m/s 759 mmHg 82%
    03:00 +4°C° 0 mm 1 m/s 759 mmHg 83%
    04:00 +4°C° 0 mm 1 m/s 759 mmHg 83%
    05:00 +4°C° 0 mm 1 m/s 759 mmHg 84%
    06:00 +4°C° 0 mm 1 m/s 759 mmHg 84%
    07:00 +3°C° 0,1 mm 2 m/s 759 mmHg 82%
    08:00 +4°C° 0,1 mm 2 m/s 759 mmHg 80%
    09:00 +5°C° 0,1 mm 2 m/s 759 mmHg 78%
    10:00 +4°C° 0,3 mm 3 m/s 759 mmHg 75%
    11:00 +5°C° 0,3 mm 4 m/s 760 mmHg 72%
    12:00 +5°C° 0,3 mm 4 m/s 760 mmHg 70%
    13:00 +5°C° 0,1 mm 4 m/s 760 mmHg 69%
    14:00 +5°C° 0,1 mm 5 m/s 761 mmHg 68%
    15:00 +3°C° 0,1 mm 5 m/s 761 mmHg 67%
    16:00 +3°C° 0,1 mm 5 m/s 761 mmHg 69%
    17:00 +2°C° 0,1 mm 5 m/s 762 mmHg 72%
    18:00 +1°C° 0,1 mm 5 m/s 762 mmHg 74%
    19:00 +1°C° 0 mm 5 m/s 763 mmHg 75%
    20:00 +1°C° 0 mm 5 m/s 763 mmHg 75%
    21:00 +1°C° 0 mm 5 m/s 764 mmHg 75%
    22:00 +1°C° 0,1 mm 5 m/s 764 mmHg 75%
    23:00 +1°C° 0,1 mm 5 m/s 764 mmHg 76%

    26 Novembre, Dimanche

    Heure Température Précipitation Vent Pression Humidité
    00:00 +1°C° 0,1 mm 5 m/s 764 mmHg 76%
    01:00 0°C° 0,1 mm 5 m/s 764 mmHg 76%
    02:00 0°C° 0,1 mm 5 m/s 764 mmHg 76%
    03:00 0°C° 0,1 mm 5 m/s 764 mmHg 77%
    04:00 0°C° 0 mm 5 m/s 765 mmHg 77%
    05:00 0°C° 0 mm 5 m/s 765 mmHg 78%
    06:00 0°C° 0 mm 5 m/s 765 mmHg 78%
    07:00 +1°C° 0 mm 5 m/s 765 mmHg 77%
    08:00 +1°C° 0 mm 5 m/s 766 mmHg 76%
    09:00 +2°C° 0 mm 5 m/s 766 mmHg 74%
    10:00 +3°C° 0,1 mm 6 m/s 766 mmHg 71%
    11:00 +4°C° 0,1 mm 6 m/s 766 mmHg 68%
    12:00 +5°C° 0,1 mm 6 m/s 766 mmHg 65%
    13:00 +4°C° 0,1 mm 6 m/s 766 mmHg 67%
    14:00 +5°C° 0,1 mm 5 m/s 766 mmHg 69%
    15:00 +5°C° 0,1 mm 5 m/s 766 mmHg 71%
    16:00 +3°C° 0,1 mm 5 m/s 766 mmHg 73%
    17:00 +3°C° 0,1 mm 5 m/s 766 mmHg 76%
    18:00 +3°C° 0,1 mm 4 m/s 766 mmHg 78%
    19:00 +3°C° 0 mm 4 m/s 766 mmHg 79%
    20:00 +3°C° 0 mm 4 m/s 767 mmHg 80%
    21:00 +3°C° 0 mm 4 m/s 767 mmHg 80%
    22:00 +3°C° 0 mm 4 m/s 767 mmHg 81%
    23:00 +3°C° 0 mm 4 m/s 767 mmHg 82%

    27 Novembre, Lundi

    Heure Température Précipitation Vent Pression Humidité
    00:00 +3°C° 0 mm 4 m/s 766 mmHg 83%
    01:00 +3°C° 0 mm 4 m/s 766 mmHg 84%
    02:00 +1°C° 0 mm 4 m/s 766 mmHg 84%
    03:00 +1°C° 0 mm 4 m/s 766 mmHg 84%
    04:00 +1°C° 0 mm 4 m/s 766 mmHg 84%
    05:00 +1°C° 0 mm 4 m/s 766 mmHg 84%
    06:00 0°C° 0 mm 4 m/s 766 mmHg 84%
    07:00 +1°C° 0 mm 5 m/s 765 mmHg 82%
    08:00 +2°C° 0 mm 6 m/s 765 mmHg 79%
    09:00 +2°C° 0 mm 6 m/s 764 mmHg 77%
    10:00 +3°C° 0,4 mm 7 m/s 763 mmHg 77%
    11:00 +4°C° 0,4 mm 8 m/s 763 mmHg 77%
    12:00 +5°C° 0,4 mm 9 m/s 762 mmHg 77%
    13:00 +5°C° 0,9 mm 9 m/s 761 mmHg 80%
    14:00 +5°C° 0,9 mm 8 m/s 761 mmHg 83%
    15:00 +5°C° 0,9 mm 7 m/s 760 mmHg 86%
    16:00 +5°C° 0,2 mm 7 m/s 760 mmHg 85%
    17:00 +5°C° 0,2 mm 6 m/s 760 mmHg 84%
    18:00 +6°C° 0,2 mm 5 m/s 760 mmHg 83%
    19:00 +5°C° 0 mm 5 m/s 760 mmHg 83%
    20:00 +5°C° 0 mm 5 m/s 759 mmHg 83%
    21:00 +3°C° 0 mm 5 m/s 759 mmHg 84%
    22:00 +5°C° 0 mm 5 m/s 759 mmHg 84%
    23:00 +5°C° 0 mm 5 m/s 758 mmHg 85%

    28 Novembre, Mardi

    Heure Température Précipitation Vent Pression Humidité
    00:00 +5°C° 0 mm 5 m/s 758 mmHg 85%
    01:00 +5°C° 0,3 mm 5 m/s 757 mmHg 87%
    02:00 +5°C° 0,3 mm 5 m/s 757 mmHg 89%
    03:00 +5°C° 0,3 mm 5 m/s 756 mmHg 91%
    04:00 +5°C° 0,5 mm 5 m/s 755 mmHg 92%
    05:00 +6°C° 0,5 mm 5 m/s 755 mmHg 92%
    06:00 +5°C° 0,5 mm 6 m/s 754 mmHg 93%
    07:00 +5°C° 1 mm 6 m/s 753 mmHg 91%
    08:00 +5°C° 1 mm 7 m/s 752 mmHg 89%
    09:00 +5°C° 1 mm 8 m/s 752 mmHg 87%
    10:00 +6°C° 0,4 mm 8 m/s 751 mmHg 80%
    11:00 +6°C° 0,4 mm 7 m/s 751 mmHg 73%
    12:00 +8°C° 0,4 mm 7 m/s 750 mmHg 66%
    13:00 +7°C° 0,1 mm 6 m/s 750 mmHg 68%
    14:00 +7°C° 0,1 mm 6 m/s 750 mmHg 69%
    15:00 +7°C° 0,1 mm 5 m/s 750 mmHg 71%
    16:00 +6°C° 0 mm 4 m/s 751 mmHg 75%
    17:00 +5°C° 0 mm 3 m/s 751 mmHg 79%
    18:00 +6°C° 0 mm 2 m/s 751 mmHg 83%
    19:00 +5°C° 0 mm 2 m/s 752 mmHg 84%
    20:00 +5°C° 0 mm 2 m/s 752 mmHg 84%
    21:00 +5°C° 0 mm 1 m/s 752 mmHg 85%
    22:00 +5°C° 0 mm 1 m/s 752 mmHg 86%
    23:00 +5°C° 0 mm 1 m/s 752 mmHg 86%
    Voir plus